Location: McFarlands Corners
(41.4117°N, 81.3382°W)
Time: 17:13:49
(UTC+00:00)

SR - Pass Details

Date: 16 February 2026
Orbit: 572 x 849 km, 66.7° (Epoch: 12 March)

Event Time Altitude Azimuth Distance (km) Brightness Sun altitude
Rises 09:34:34 0° 188° (S) 2,761 - -31.3°
Reaches altitude 10° 09:36:53 10° 179° (S) 1,870 - -30.9°
Maximum altitude 09:40:42 36° 113° (ESE) 931 - -30.2°
Exits shadow 09:41:22 34° 91° (E) 977 ? -30.1°
Drops below altitude 10° 09:44:39 10° 46° (NE) 1,940 ? -29.5°
Sets 09:47:05 0° 38° (NE) 2,881 ? -29.0°
